[[{"header":{"parameterUnit":"m.s-1","parameterCategory":1,"la1":30.2991,"la2":30.254,"lo1":-89.0895,"lo2":-89.0444,"dy":0.0017,"dx":0.0017,"nx":28,"ny":28,"refTime":"2023-07-30T09:00:00:Z","depth":0,"parameterNumber":2,"parameterNumberName":"U-component_of_WINDS"},"data":[0,0,0,0,0,0,0,0,0,0,0,0,0,0,0,0,0,0,0,0,0,0,0,0,0,0,0,0,0,0,0,0,0,0,0,0,0,0,0,0,0,0,0,0,0,0,0,0,0,0,0,0,0,0,0,0,0,0,2.5511,2.551,0,2.5498,2.5498,2.5498,2.5355,2.5351,2.5348,2.5344,2.5333,2.5336,2.5339,0,0,0,0,0,0,0,0,0,0,0,0,0,2.5412,2.5414,2.5511,2.551,2.551,2.5498,2.5498,2.5498,2.5355,2.5351,2.5347,2.5343,2.5332,2.5336,2.5339,0,0,0,0,0,0,0,0,0,0,0,0,0,2.5433,2.5415,2.5511,2.5438,2.5431,2.5498,2.5498,2.5498,2.5356,2.5351,2.5346,2.5341,2.5331,2.5335,2.534,2.5476,0,0,2.5354,2.5356,0,0,0,0,0,0,0,0,2.5432,2.5437,2.5449,2.5443,2.5436,2.5422,2.5459,2.549,2.5358,2.5385,2.5344,2.5338,2.5367,2.5368,2.5378,2.5475,2.5475,2.5354,2.5357,2.5359,2.536,0,0,0,0,0,0,0,2.543,2.5436,2.5505,2.5449,2.5441,2.5406,2.5403,2.5464,2.5407,2.5382,2.5372,2.5372,2.5363,2.5374,2.5377,2.5475,2.5354,2.5358,2.5361,2.5363,2.5681,2.5687,0,0,0,0,0,0,2.5439,2.5436,2.5506,2.5505,2.542,2.5412,2.5409,2.5432,2.5405,2.5396,2.5377,2.5365,2.5369,2.5371,2.5376,2.5532,2.5359,2.5363,2.5366,2.5676,2.5683,2.5689,0,0,0,0,0,0,2.5437,2.5447,2.5506,2.5468,2.5473,2.5419,2.5447,2.5435,2.5446,2.5401,2.539,2.5399,2.5365,2.5369,2.5451,2.553,2.5365,2.5369,2.5669,2.5678,2.5686,2.5847,0,0,0,0,0,0,2.5435,2.5447,2.5498,2.547,2.5475,2.5583,2.5452,2.5438,2.5454,2.5439,2.5419,2.5411,2.5361,2.5445,2.5456,2.5533,2.5373,2.5662,2.5673,2.5683,2.5834,2.586,2.5882,0,0,0,0,0,2.5432,2.5545,2.5501,2.5511,2.5538,2.5588,2.5591,2.553,2.5461,2.5512,2.5483,2.5411,2.552,2.5455,2.5466,2.5545,2.5656,2.567,2.5682,2.5824,2.5855,2.5881,0,0,0,0,0,0,2.5584,2.554,2.5491,2.5598,2.5598,2.5563,2.5626,2.5566,2.5586,2.5571,2.5496,2.5493,2.5586,2.5574,2.5503,2.5675,2.5575,2.5591,2.5679,2.5709,2.5732,2.5733,2.5377,0,0,0,0,0,2.563,2.5674,2.5633,2.5731,2.5733,2.568,2.5699,2.5653,2.565,2.5649,2.5626,2.5626,2.5659,2.5683,2.5712,2.5832,2.5825,2.5892,2.5916,2.5935,2.595,2.6011,2.604,2.5731,2.5731,2.5731,0,0,2.5726,2.5707,2.5739,2.5761,2.5755,2.5802,2.5681,2.5736,2.577,2.5657,2.5733,2.5717,2.5711,2.5813,2.5856,2.5805,2.6034,2.5952,2.5968,2.5971,2.6027,2.6057,2.6083,2.574,2.5738,2.5737,0,0,2.5923,2.5914,2.5993,2.599,2.5982,2.5946,2.5965,2.594,2.5925,2.5999,2.5916,2.5955,2.6015,2.6014,2.6022,2.6219,2.6153,2.623,2.6354,2.6415,2.6439,2.646,2.653,2.6556,2.6245,2.6245,2.6245,0,2.6043,2.6109,2.6042,2.6102,2.6114,2.6014,2.6094,2.6094,2.6097,2.6107,2.605,2.6122,2.6112,2.6211,2.6259,2.6269,2.6288,2.6232,2.6441,2.6462,2.648,2.6546,2.6572,2.6254,2.6253,2.6252,2.6251,0,2.6256,2.6304,2.637,2.6374,2.6393,2.6463,2.6406,2.6434,2.6386,2.6356,2.6433,2.6417,2.644,2.646,2.6414,2.6553,2.6521,2.6454,2.6352,2.652,2.658,2.6605,2.6268,2.6264,2.6262,2.6259,0,0,2.655,2.6515,2.654,2.654,2.6524,2.6559,2.6625,2.6646,2.6671,2.6676,2.6729,2.6782,2.6719,2.6728,2.6681,2.6734,2.689,2.666,2.6658,2.6703,2.7041,2.7091,2.7121,2.6846,2.6851,2.6854,2.7041,0,2.6739,2.6848,2.6789,2.6906,2.6948,2.6853,2.691,2.6906,2.688,2.6913,2.6883,2.6921,2.6836,2.684,2.6889,2.6861,2.6957,2.6846,2.6895,2.6897,2.6898,2.7153,2.7206,2.7383,2.7064,2.7068,2.7071,0,2.6974,2.6988,2.711,2.7084,2.71,2.7152,2.7166,2.7199,2.7193,2.7169,2.7179,2.7119,2.7181,2.7081,2.7166,2.7092,2.7108,2.7097,2.7103,2.7105,2.6994,2.7161,2.7438,2.7465,2.7107,2.7104,2.7102,0,2.7175,2.7224,2.7302,2.7306,2.7278,2.7317,2.7308,2.7296,2.7312,2.7326,2.7335,2.7356,2.7368,2.7385,2.7332,2.7265,2.7424,2.732,2.7406,2.7408,2.7444,2.7442,2.7727,2.7456,2.7456,2.7455,2.7455,0,2.7392,2.747,2.7392,2.744,2.7524,2.7456,2.7541,2.7521,2.7512,2.7554,2.7474,2.7516,2.7443,2.7478,2.7438,2.7513,2.7519,2.7502,2.7491,2.7509,2.7512,2.7519,2.7505,2.7462,2.7461,2.7459,2.7458,0,2.763,2.7581,2.766,2.7627,2.7621,2.7684,2.7656,2.77,2.7667,2.7722,2.7731,2.7681,2.7718,2.7667,2.7699,2.7671,2.7775,2.7745,2.7777,2.7768,2.7857,2.785,2.8156,2.8193,2.7899,2.7902,2.7905,0,2.7772,2.7829,2.7802,2.7824,2.7819,2.7857,2.7873,2.7807,2.7828,2.7824,2.7868,2.7898,2.7918,2.7981,2.7948,2.7972,2.7941,2.8047,2.7944,2.7961,2.7942,2.7939,2.7944,2.8068,2.8072,2.8075,2.8077,0,2.8028,2.8,2.8026,2.8044,2.8065,2.8076,2.8081,2.8104,2.8036,2.8063,2.8099,2.8115,2.8146,2.8177,2.8192,2.8182,2.8119,2.811,2.8131,2.815,2.8166,2.8158,2.7834,2.8103,2.81,2.8098,2.8097,2.8096,2.8221,2.8267,2.8255,2.8286,2.8283,2.8289,2.8328,2.83,2.8329,2.8349,2.8309,2.8355,2.8346,2.836,2.8357,2.8392,2.8346,2.8377,2.8385,2.8394,2.8407,2.8161,2.8395,2.8394,2.8394,2.8393,2.8392,0,2.8472,2.8459,2.8488,2.8497,2.8522,2.8459,2.8462,2.8487,2.8528,2.8525,2.8546,2.8588,2.8617,2.8586,2.8609,2.8643,2.8615,2.8651,2.8648,2.8647,2.8447,2.8426,2.8674,2.8674,2.8674,2.8674,2.8674,2.8674,2.8605,2.8679,2.865,2.8722,2.8708,2.8752,2.8759,2.8764,2.8761,2.8811,2.8834,2.8813,2.8799,2.8821,2.8845,2.8835,2.8847,2.8894,2.8874,2.8688,2.8661,2.8634,2.8614,2.8897,2.8898,2.907,2.9072,2.9073]},{"header":{"parameterUnit":"m.s-1","parameterCategory":1,"la1":30.2991,"la2":30.254,"lo1":-89.0895,"lo2":-89.0444,"dy":0.0017,"dx":0.0017,"nx":28,"ny":28,"refTime":"2023-07-30T09:00:00:Z","depth":0,"parameterNumber":3,"parameterNumberName":"V-component_of_WINDS"},"data":[0,0,0,0,0,0,0,0,0,0,0,0,0,0,0,0,0,0,0,0,0,0,0,0,0,0,0,0,0,0,0,0,0,0,0,0,0,0,0,0,0,0,0,0,0,0,0,0,0,0,0,0,0,0,0,0,0,0,1.1615,1.1614,0,1.1485,1.1484,1.1482,1.1384,1.1383,1.1382,1.1381,1.1245,1.1243,1.124,0,0,0,0,0,0,0,0,0,0,0,0,0,1.1776,1.1774,1.1615,1.1614,1.1612,1.1486,1.1484,1.1482,1.1384,1.1383,1.1382,1.1381,1.1246,1.1243,1.124,0,0,0,0,0,0,0,0,0,0,0,0,0,1.1682,1.1773,1.1616,1.1548,1.1541,1.1486,1.1484,1.1482,1.1384,1.1383,1.1382,1.138,1.1247,1.1243,1.1239,1.124,0,0,1.1226,1.1225,0,0,0,0,0,0,0,0,1.1688,1.1676,1.156,1.1553,1.1544,1.1449,1.149,1.1401,1.1385,1.1444,1.1381,1.138,1.1314,1.1304,1.1283,1.1234,1.1228,1.1226,1.1224,1.1222,1.1221,0,0,0,0,0,0,0,1.1694,1.1681,1.1564,1.1558,1.1549,1.1523,1.1508,1.1473,1.1388,1.1438,1.1431,1.1417,1.131,1.1287,1.1279,1.1226,1.1226,1.1222,1.122,1.1218,1.117,1.1172,0,0,0,0,0,0,1.1712,1.1687,1.1568,1.156,1.1614,1.1522,1.1505,1.1481,1.1388,1.1373,1.1418,1.1413,1.1295,1.1284,1.1274,1.1268,1.1222,1.1218,1.1215,1.1169,1.1171,1.1172,0,0,0,0,0,0,1.1716,1.1702,1.1573,1.1622,1.1603,1.152,1.1494,1.1479,1.1457,1.1373,1.1357,1.1411,1.1293,1.128,1.1249,1.1262,1.1216,1.1212,1.1168,1.117,1.1171,1.1257,0,0,0,0,0,0,1.1721,1.1704,1.1704,1.1622,1.1601,1.1552,1.1495,1.1478,1.145,1.1442,1.1362,1.1347,1.1291,1.1256,1.1245,1.1255,1.1209,1.1166,1.1169,1.1171,1.1253,1.1262,1.1269,0,0,0,0,0,1.1727,1.1733,1.1705,1.1691,1.16,1.1553,1.1541,1.1477,1.1452,1.145,1.1397,1.135,1.1263,1.1254,1.1241,1.125,1.1165,1.1168,1.1171,1.1249,1.126,1.1269,0,0,0,0,0,0,1.1817,1.1721,1.1688,1.1669,1.162,1.1536,1.1533,1.1491,1.1447,1.1441,1.1363,1.1346,1.1323,1.1283,1.1275,1.1245,1.1208,1.1208,1.1272,1.1282,1.129,1.1299,1.1205,0,0,0,0,0,1.1835,1.1806,1.1723,1.1714,1.1691,1.1617,1.1594,1.1549,1.1495,1.1473,1.1417,1.1366,1.1326,1.1302,1.1261,1.1247,1.1228,1.1247,1.1255,1.1262,1.1263,1.1251,1.1259,1.1181,1.1181,1.1181,0,0,1.1871,1.1815,1.1801,1.1731,1.1687,1.1658,1.16,1.1571,1.1548,1.1469,1.1436,1.1394,1.1331,1.1309,1.1296,1.1275,1.128,1.1266,1.1272,1.1269,1.1255,1.1263,1.1269,1.1183,1.1183,1.1182,0,0,1.1922,1.1878,1.1864,1.1822,1.1758,1.1709,1.1706,1.1629,1.1597,1.1564,1.1504,1.1475,1.141,1.1367,1.1337,1.1372,1.1327,1.1361,1.1404,1.1394,1.14,1.1405,1.1416,1.1421,1.1363,1.1363,1.1363,0,1.1975,1.1929,1.1863,1.1837,1.1808,1.1736,1.1721,1.1683,1.1609,1.159,1.1568,1.1484,1.1436,1.1402,1.1411,1.139,1.1383,1.1369,1.1404,1.1409,1.1412,1.1422,1.1427,1.1367,1.1367,1.1366,1.1366,0,1.1996,1.1965,1.1962,1.1893,1.1863,1.1843,1.1773,1.1751,1.1709,1.1662,1.1629,1.157,1.1515,1.1504,1.1463,1.1465,1.1453,1.1419,1.1379,1.1425,1.1433,1.1437,1.1374,1.1372,1.1371,1.137,0,0,1.2098,1.1994,1.1994,1.1961,1.1885,1.1859,1.1837,1.1784,1.1766,1.1718,1.1695,1.1642,1.161,1.1576,1.1529,1.152,1.1551,1.1486,1.1484,1.1499,1.1547,1.1573,1.1578,1.1521,1.1522,1.1522,1.1552,0,1.2136,1.2091,1.2031,1.2006,1.1976,1.1908,1.1888,1.1839,1.1794,1.1761,1.1712,1.1675,1.1636,1.1615,1.1603,1.155,1.1559,1.1547,1.1498,1.1498,1.1515,1.1582,1.1609,1.164,1.1555,1.1556,1.1556,0,1.2173,1.2129,1.2101,1.2028,1.2013,1.1996,1.1943,1.1913,1.1856,1.1824,1.1787,1.1737,1.1708,1.1675,1.1633,1.1626,1.1603,1.1574,1.1574,1.1565,1.1528,1.1574,1.1648,1.1653,1.156,1.156,1.156,0,1.2249,1.2183,1.2157,1.2132,1.2046,1.2035,1.1999,1.194,1.1913,1.1867,1.1848,1.1799,1.1772,1.1735,1.1673,1.1654,1.1638,1.1599,1.1609,1.1611,1.1607,1.1608,1.1677,1.1596,1.1596,1.1596,1.1596,0,1.2295,1.2281,1.219,1.2174,1.2155,1.2087,1.207,1.2027,1.1976,1.195,1.1888,1.1865,1.1785,1.1753,1.1704,1.1676,1.1665,1.1638,1.1624,1.1642,1.1645,1.1624,1.162,1.1597,1.1597,1.1597,1.1596,0,1.2376,1.2315,1.2282,1.2204,1.2184,1.2174,1.2106,1.2088,1.204,1.2008,1.1997,1.1922,1.188,1.1815,1.1754,1.1721,1.1702,1.1681,1.1721,1.1713,1.1727,1.1726,1.1783,1.1787,1.1706,1.1706,1.1707,0,1.2409,1.2396,1.2317,1.2296,1.2262,1.2228,1.22,1.2132,1.2105,1.2039,1.2029,1.1983,1.1942,1.1878,1.1818,1.1771,1.1747,1.1771,1.174,1.1758,1.1746,1.1747,1.1744,1.1778,1.1779,1.178,1.1781,0,1.2474,1.2444,1.2406,1.2358,1.2327,1.2285,1.2241,1.2227,1.2149,1.2122,1.2079,1.2047,1.1985,1.194,1.1885,1.1846,1.18,1.1792,1.1791,1.1808,1.1831,1.1817,1.1739,1.179,1.1789,1.1788,1.1788,1.1787,1.253,1.2515,1.2457,1.2417,1.2377,1.2337,1.2316,1.2266,1.223,1.2174,1.2136,1.2096,1.2038,1.196,1.1924,1.189,1.187,1.187,1.1869,1.187,1.1876,1.1839,1.188,1.188,1.1879,1.1879,1.1879,0,1.2589,1.2549,1.2513,1.2454,1.2422,1.2384,1.2332,1.2308,1.2273,1.2225,1.2186,1.2137,1.2092,1.2029,1.198,1.1965,1.1943,1.1955,1.1954,1.1946,1.1897,1.1902,1.1973,1.1973,1.1973,1.1973,1.1973,1.1973,1.2617,1.259,1.2554,1.2506,1.2465,1.2425,1.2399,1.2362,1.2322,1.227,1.2233,1.2193,1.2138,1.2084,1.2042,1.2024,1.2008,1.2026,1.2002,1.1958,1.1949,1.1941,1.1944,1.2024,1.2024,1.2053,1.2053,1.2053]}]]